Location: Kumla
(59.1265°N, 15.1401°E)
Time: 08:40:24
(UTC+01:00)

A-11 Canister half - Pass Details

Date: 12 December 2023
Orbit: 1526 x 1682 km, 47.3° (Epoch: 04 March)

Event Time Altitude Azimuth Distance (km) Brightness Sun altitude
Rises 20:41:27 0° 261° (W) 4,936 12.3 -40.8°
Reaches altitude 10° 20:44:51 10° 255° (WSW) 3,947 11.6 -41.2°
Enters shadow 20:51:31 36° 220° (SW) 2,442 10.0 -41.9°
